Погода в Сале

Латвия     56°21′39″N   27°11′23″E
темп.,
°C
ветер,
м/с
пор.,
м/с
влажн.,
%
обл.,
%
осадки,
мм/ч
давл.,
гПа
погр.,
м
5 марта, пт
пт523:00−3сз27700 0.0 1010412
02:00−3з37680 0.0 1010486
05:00−3зсз497066 0.1 10111211
08:00−4сз6108880 0.3 1011910
11:00−2ссз594275 0.2 10131709
14:00−1ссз5103654 0.2 10152227
17:00−2ссз3643100 0.0 10161571
20:00−3с135493 0.0 1018189
6 марта, сб
сб623:00−3с125999 0.0 1019232
02:00−5с236896 0.0 1020192
05:00−6сз26754 0.0 1021279
08:00−6зсз37702 0.0 1022487
11:00−2зсз46523 0.0 10221084
14:000з59443 0.0 10201457
17:00−1зюз61355100 0.0 10161424
20:00−1зюз71562100 0.0 10141339
7 марта, вс
вс723:00−1зюз81765100 0.0 10091394
02:00−1зюз81691100 0.2 10041232
05:00−1сз61476100 3.1 10021248
08:00−4сз5144383 3.2 10051717
11:00−2з712460 0.0 10052034
14:00−2з7125550 0.6 10031834
17:00−3з71365100 0.6 10011880
20:00−3зсз81468100 1.1 10011707
8 марта, пн
пн823:00−6сз7137399 0.0 10031330
02:00−6ссз5116999 0.1 10061302
05:00−8ссз386813 0.0 1008699
08:00−8сз36676 0.0 1010633
11:00−5сз466238 0.0 10111212
14:00−5ссз565870 0.2 10131201
17:00−6ссз4764100 0.1 10151221
20:00−8с5973100 0.1 10181164
9 марта, вт
вт923:00−10с497398 0.0 1021798
02:00−11с377451 0.0 1022507
05:00−11ссз27830 0.0 1024348
08:00−10ссз25790 0.0 1025313
11:00−6сз24580 0.0 1026622
14:00−3зсз34490 0.0 1026897
17:00−3з36540 0.0 1026753
20:00−6з39704 0.0 1027340